Weather History for Shreveport, LA

Change the Weather History Date:

Saturday, March 10, 2012

  Actual Average Record
Temperature  
Mean Temperature 57 °F 56 °F  
Max Temperature 67 °F 68 °F 87 °F (1911)
Min Temperature 46 °F 45 °F 23 °F (1996)
Degree Days  
Heating Degree Days 8 9  
Month to date heating degree days 47 103  
Since 1 July heating degree days 1510 1985  
Cooling Degree Days 0 1  
Month to date cooling degree days 16 8  
Year to date cooling degree days 55 18  
Growing Degree Days 6 (Base 50)    
Moisture  
Dew Point 39 °F    
Average Humidity 56    
Maximum Humidity 77    
Minimum Humidity 34    
Precipitation  
Precipitation 0.23 in 0.13 in 2.03 in (1952)
Month to date precipitation 1.70 1.40  
Year to date precipitation 8.45 10.35  
Snow  
Snow 0.00 in - - ()
Month to date snowfall 0.0  
Since 1 July snowfall T  
Snow Depth 0.00 in    
Sea Level Pressure  
Sea Level Pressure 30.25 in    
Wind  
Wind Speed 8 mph (East)    
Max Wind Speed 17 mph    
Max Gust Speed 22 mph    
Visibility 10 miles    
Events Rain    
T = Trace of Precipitation, MM = Missing Value Source: NWS Daily Summary

Daily Weather History Graph

Daily Weather History Graph

Search for Another Location

Airport:

Trip Planner

Search our weather history database for the weather conditions in past years. The results will help you decide how hot, cold, wet, or windy it might be!

Date:

Astronomy

Mar. 10, 2012 Rise Set
Actual Time 6:31 AM CST 6:20 PM CST
Civil Twilight 6:06 AM CST 6:44 PM CST
Nautical Twilight 5:38 AM CST 7:13 PM CST
Astronomical Twilight 5:09 AM CST 7:41 PM CST
Moon 9:18 PM CST (3/10) 7:39 AM CST (3/10)
Length of Visible Light 12h 37m
Length of Day
11h 48m
Waning Gibbous, 92% of the Moon is Illuminated
Mar 10
Waning Gibbous
Mar 14
Last Quarter
Mar 22
New
Mar 30
First Quarter
Apr 6
Full

Hourly Weather History & Observations

Time (CST) Temp. Windchill Dew Point Humidity Pressure Visibility Wind Dir Wind Speed Gust Speed Precip Events Conditions
12:56 AM 51.1 °F - 36.0 °F 56% 30.32 in 10.0 mi North 10.4 mph - N/A   Mostly Cloudy
1:56 AM 51.1 °F - 37.0 °F 59% 30.30 in 10.0 mi ENE 10.4 mph - N/A   Mostly Cloudy
2:56 AM 48.9 °F - 37.0 °F 64% 30.31 in 10.0 mi ENE 4.6 mph - N/A   Mostly Cloudy
3:56 AM 48.9 °F - 37.9 °F 66% 30.29 in 10.0 mi ENE 6.9 mph - N/A   Mostly Cloudy
4:56 AM 48.0 °F - 37.0 °F 66% 30.30 in 10.0 mi ENE 6.9 mph - N/A   Mostly Cloudy
5:56 AM 46.0 °F 43.1 °F 37.0 °F 71% 30.32 in 10.0 mi ENE 5.8 mph - N/A   Mostly Cloudy
6:56 AM 48.9 °F - 37.9 °F 66% 30.34 in 10.0 mi ENE 6.9 mph - N/A   Mostly Cloudy
7:56 AM 51.1 °F - 37.0 °F 59% 30.33 in 10.0 mi ENE 9.2 mph - N/A   Mostly Cloudy
8:56 AM 52.0 °F - 37.0 °F 57% 30.34 in 10.0 mi East 8.1 mph - N/A   Overcast
9:56 AM 55.9 °F - 36.0 °F 47% 30.35 in 10.0 mi ESE 10.4 mph - N/A   Overcast
10:56 AM 61.0 °F - 36.0 °F 39% 30.32 in 10.0 mi ESE 16.1 mph - N/A   Mostly Cloudy
11:56 AM 62.1 °F - 36.0 °F 38% 30.29 in 10.0 mi ESE 10.4 mph - N/A   Mostly Cloudy
12:56 PM 63.0 °F - 36.0 °F 37% 30.24 in 10.0 mi East 13.8 mph - N/A   Mostly Cloudy
1:56 PM 64.0 °F - 36.0 °F 35% 30.21 in 10.0 mi ESE 6.9 mph - N/A   Overcast
2:56 PM 66.0 °F - 37.9 °F 36% 30.19 in 10.0 mi ENE 8.1 mph - N/A   Overcast
3:56 PM 66.9 °F - 37.9 °F 34% 30.17 in 10.0 mi East 8.1 mph - N/A   Overcast
4:56 PM 66.0 °F - 37.9 °F 36% 30.16 in 10.0 mi ESE 4.6 mph - N/A   Overcast
5:56 PM 64.9 °F - 37.0 °F 36% 30.15 in 10.0 mi ESE 6.9 mph - 0.00 in Rain Light Rain
6:56 PM 61.0 °F - 42.1 °F 50% 30.16 in 10.0 mi SE 6.9 mph - 0.00 in   Overcast
7:56 PM 62.1 °F - 43.0 °F 50% 30.14 in 10.0 mi SE 4.6 mph - N/A   Mostly Cloudy
8:56 PM 62.1 °F - 42.1 °F 48% 30.18 in 10.0 mi SE 4.6 mph - N/A   Overcast
9:20 PM 62.6 °F - 42.8 °F 48% 30.20 in 10.0 mi Calm Calm - 0.00 in Rain Light Rain
9:56 PM 57.0 °F - 48.0 °F 72% 30.24 in 7.0 mi West 11.5 mph - 0.04 in Rain Heavy Rain
10:56 PM 55.0 °F - 48.9 °F 80% 30.15 in 10.0 mi SE 11.5 mph - 0.12 in Rain Light Rain
11:56 PM 54.0 °F - 48.9 °F 83% 30.13 in 7.0 mi ESE 9.2 mph 16.1 mph 0.06 in Rain Rain